Berea, KY

6:31 PM EDT on September 28, 2016 (GMT -0400)
Richmond

Weather History for KI39 - April, 2013

Change the Weather History Date:

Friday, April 26, 2013

  Actual Average (KLOZ) Record (KLOZ)
Temperature  
Mean Temperature 48 °F 60 °F  
Max Temperature 60 °F 72 °F 87 °F (1984)
Min Temperature 35 °F 48 °F 33 °F (1968)
Degree Days  
Heating Degree Days 18 6  
Month to date heating degree days 252  
Since 1 July heating degree days 4077  
Cooling Degree Days 0 1  
Month to date cooling degree days 18  
Year to date cooling degree days 21  
Moisture  
Dew Point 35 °F    
Average Humidity 57    
Maximum Humidity 93    
Minimum Humidity 36    
Precipitation  
Precipitation 0.00 in 0.14 in 1.96 in (1967)
Month to date precipitation 3.49  
Sea Level Pressure  
Sea Level Pressure 30.39 in    
Wind  
Wind Speed 2 mph (NE)    
Max Wind Speed 10 mph    
Max Gust Speed -    
Visibility 10 miles    
Events      
T = Trace of Precipitation, MM = Missing Value Source: NWS Daily Summary

Daily Weather History Graph

Daily Weather History Graph

Search for Another Location

Airport or City:

Trip Planner

Search our weather history database for the weather conditions in past years. The results will help you decide how hot, cold, wet, or windy it might be!

Date:

Astronomy

Apr. 26, 2013 Rise Set
Actual Time 6:47 AM EDT 8:23 PM EDT
Civil Twilight 6:19 AM EDT 8:51 PM EDT
Nautical Twilight 5:46 AM EDT 9:24 PM EDT
Astronomical Twilight 5:10 AM EDT 10:00 PM EDT
Moon 9:43 PM EDT (4/26) 7:15 AM EDT (4/26)
Length of Visible Light 14h 31m
Length of Day
13h 35m
Full, 99% of the Moon is Illuminated
Apr 26
Full
May 2
Last Quarter
May 9
New
May 18
First Quarter
May 25
Full

Hourly Weather History & Observations

Time (EDT) Temp. Windchill Dew Point Humidity Pressure Visibility Wind Dir Wind Speed Gust Speed Precip Events Conditions
12:15 AM 46.4 °F - 35.6 °F 66% 30.36 in 10.0 mi Calm Calm - N/A   Scattered Clouds
12:35 AM 44.6 °F - 35.6 °F 71% 30.36 in 10.0 mi Calm Calm - N/A   Clear
12:55 AM 46.4 °F - 35.6 °F 66% 30.37 in 10.0 mi Calm Calm - N/A   Clear
1:15 AM 46.4 °F - 35.6 °F 66% 30.37 in 10.0 mi Calm Calm - N/A   Clear
1:35 AM 42.8 °F - 37.4 °F 81% 30.38 in 10.0 mi Calm Calm - N/A   Clear
1:55 AM 44.6 °F 43.1 °F 35.6 °F 71% 30.38 in 10.0 mi NNE 3.5 mph - N/A   Clear
2:15 AM 44.6 °F - 33.8 °F 66% 30.38 in 10.0 mi Calm Calm - N/A   Clear
2:35 AM 44.6 °F - 33.8 °F 66% 30.38 in 10.0 mi Calm Calm - N/A   Clear
2:55 AM 42.8 °F - 33.8 °F 70% 30.38 in 10.0 mi Calm Calm - N/A   Clear
3:15 AM 42.8 °F - 33.8 °F 70% 30.38 in 10.0 mi Calm Calm - N/A   Clear
3:35 AM 42.8 °F - 33.8 °F 70% 30.38 in 7.0 mi Calm Calm - N/A   Clear
3:55 AM 41.0 °F - 33.8 °F 76% 30.38 in 10.0 mi Calm Calm - N/A   Clear
4:15 AM 41.0 °F 39.0 °F 33.8 °F 76% 30.38 in 10.0 mi ENE 3.5 mph - N/A   Clear
4:35 AM 41.0 °F 38.0 °F 33.8 °F 76% 30.38 in 10.0 mi ENE 4.6 mph - N/A   Clear
4:55 AM 41.0 °F - 33.8 °F 76% 30.40 in 10.0 mi Calm Calm - N/A   Clear
5:15 AM 39.2 °F - 33.8 °F 81% 30.40 in 10.0 mi Calm Calm - N/A   Clear
5:35 AM 39.2 °F - 33.8 °F 81% 30.40 in 10.0 mi Calm Calm - N/A   Clear
5:55 AM 37.4 °F 34.9 °F 33.8 °F 87% 30.41 in 10.0 mi East 3.5 mph - N/A   Clear
6:15 AM 39.2 °F 37.0 °F 33.8 °F 81% 30.42 in 10.0 mi East 3.5 mph - N/A   Clear
6:35 AM 37.4 °F 34.9 °F 33.8 °F 87% 30.42 in 10.0 mi East 3.5 mph - N/A   Clear
7:15 AM 37.4 °F - 33.8 °F 87% 30.43 in 10.0 mi Calm Calm - N/A   Clear
7:35 AM 35.6 °F - 33.8 °F 93% 30.43 in 10.0 mi Calm Calm - N/A   Clear
7:55 AM 37.4 °F - 33.8 °F 87% 30.44 in 10.0 mi Calm Calm - N/A   Clear
8:15 AM 41.0 °F 39.0 °F 35.6 °F 81% 30.44 in 10.0 mi ESE 3.5 mph - N/A   Clear
8:35 AM 42.8 °F 41.1 °F 35.6 °F 76% 30.45 in 10.0 mi East 3.5 mph - N/A   Clear
8:55 AM 44.6 °F 42.2 °F 35.6 °F 71% 30.44 in 10.0 mi East 4.6 mph - N/A   Clear
9:15 AM 46.4 °F 42.9 °F 33.8 °F 62% 30.42 in 10.0 mi East 6.9 mph - N/A   Clear
9:35 AM 48.2 °F - 32.0 °F 54% 30.42 in 10.0 mi East 10.4 mph - N/A   Clear
10:15 AM 51.8 °F - 32.0 °F 47% 30.41 in 10.0 mi East 10.4 mph - N/A   Clear
10:35 AM 51.8 °F - 33.8 °F 50% 30.42 in 10.0 mi East 9.2 mph - N/A   Clear
10:55 AM 53.6 °F - 33.8 °F 47% 30.43 in 10.0 mi NE 6.9 mph - N/A   Clear
11:15 AM 55.4 °F - 33.8 °F 44% 30.44 in 10.0 mi East 6.9 mph - N/A   Clear
11:35 AM 55.4 °F - 32.0 °F 41% 30.44 in 10.0 mi Calm Calm - N/A   Clear
11:55 AM 55.4 °F - 32.0 °F 41% 30.44 in 10.0 mi Calm Calm - N/A   Clear
12:15 PM 57.2 °F - 33.8 °F 41% 30.43 in 10.0 mi ENE 3.5 mph - N/A   Clear
12:35 PM 57.2 °F - 33.8 °F 41% 30.44 in 10.0 mi NE 5.8 mph - N/A   Clear
12:55 PM 59.0 °F - 33.8 °F 39% 30.43 in 10.0 mi SE 4.6 mph - N/A   Clear
1:15 PM 59.0 °F - 33.8 °F 39% 30.42 in 10.0 mi ENE 4.6 mph - N/A   Clear
1:35 PM 59.0 °F - 33.8 °F 39% 30.43 in 10.0 mi East 4.6 mph - N/A   Clear
1:55 PM 59.0 °F - 32.0 °F 36% 30.43 in 10.0 mi Calm Calm - N/A   Clear
2:15 PM 59.0 °F - 33.8 °F 39% 30.42 in 10.0 mi ENE 3.5 mph - N/A   Clear
2:35 PM 59.0 °F - 33.8 °F 39% 30.41 in 10.0 mi North 5.8 mph - N/A   Clear
2:55 PM 59.0 °F - 32.0 °F 36% 30.40 in 10.0 mi North 3.5 mph - N/A   Clear
3:15 PM 59.0 °F - 33.8 °F 39% 30.39 in 10.0 mi North 4.6 mph - N/A   Clear
3:35 PM 59.0 °F - 33.8 °F 39% 30.38 in 10.0 mi North 4.6 mph - N/A   Clear
3:55 PM 59.0 °F - 33.8 °F 39% 30.37 in 10.0 mi North 5.8 mph - N/A   Clear
4:15 PM 60.8 °F - 33.8 °F 36% 30.35 in 10.0 mi NE 4.6 mph - N/A   Clear
4:35 PM 60.8 °F - 33.8 °F 36% 30.35 in 10.0 mi North 4.6 mph - N/A   Clear
4:55 PM 60.8 °F - 33.8 °F 36% 30.36 in 10.0 mi NNE 3.5 mph - N/A   Clear
5:15 PM 60.8 °F - 35.6 °F 39% 30.36 in 10.0 mi North 3.5 mph - N/A   Clear
5:35 PM 60.8 °F - 33.8 °F 36% 30.36 in 10.0 mi NNW 4.6 mph - N/A   Clear
5:55 PM 60.8 °F - 33.8 °F 36% 30.37 in 10.0 mi NNW 5.8 mph - N/A   Clear
6:15 PM 59.0 °F - 35.6 °F 42% 30.37 in 10.0 mi NNW 5.8 mph - N/A   Clear
6:35 PM 59.0 °F - 35.6 °F 42% 30.37 in 10.0 mi NNW 3.5 mph - N/A   Clear
6:55 PM 59.0 °F - 37.4 °F 45% 30.37 in 10.0 mi North 3.5 mph - N/A   Clear
7:15 PM 59.0 °F - 37.4 °F 45% 30.36 in 10.0 mi NNW 3.5 mph - N/A   Clear
7:35 PM 57.2 °F - 37.4 °F 48% 30.36 in 10.0 mi NNW 3.5 mph - N/A   Mostly Cloudy
7:55 PM 59.0 °F - 35.6 °F 42% 30.35 in 10.0 mi Calm Calm - N/A   Overcast
8:15 PM 57.2 °F - 37.4 °F 48% 30.35 in 10.0 mi Calm Calm - N/A   Overcast
8:35 PM 57.2 °F - 39.2 °F 51% 30.36 in 10.0 mi Calm Calm - N/A   Overcast
8:55 PM 55.4 °F - 39.2 °F 54% 30.35 in 10.0 mi ENE 3.5 mph - N/A   Overcast
9:15 PM 55.4 °F - 39.2 °F 54% 30.35 in 10.0 mi NE 3.5 mph - N/A   Overcast
9:35 PM 55.4 °F - 39.2 °F 54% 30.35 in 10.0 mi Calm Calm - N/A   Overcast
9:55 PM 55.4 °F - 39.2 °F 54% 30.35 in 10.0 mi Calm Calm - N/A   Overcast
10:15 PM 55.4 °F - 39.2 °F 54% 30.35 in 10.0 mi Calm Calm - N/A   Overcast
11:15 PM 53.6 °F - 39.2 °F 58% 30.33 in 10.0 mi East 4.6 mph - N/A   Overcast
11:35 PM 53.6 °F - 41.0 °F 62% 30.33 in 10.0 mi ESE 4.6 mph - N/A   Overcast
11:55 PM 53.6 °F - 41.0 °F 62% 30.33 in 10.0 mi SE 4.6 mph - N/A   Overcast